When you browse on this site, cookies collect data to enhance your experience and personalize the content and advertising you see.
Visit our Privacy Policy to learn more. By continuing to use the site, you agree to this use of cookies and data.
  • In Hungary
  • List of Countries
  • For 7 days
  • Water Temperature
  • Satellite Maps
  • Weather Map
  • News
  • Weather Widgets
  • user-avatar
    Login

    Hourly Weather Labunie

    Today, 18 January, Friday

    Time Temperature Precipitation Wind Pressure Humidity
    00:00 -1°C° 0 mm 6 mps 733 mmHg 89%
    01:00 -1°C° 0 mm 6 mps 733 mmHg 89%
    02:00 0°C° 0 mm 4 mps 733 mmHg 91%
    03:00 0°C° 0 mm 4 mps 733 mmHg 91%
    04:00 0°C° 0 mm 4 mps 733 mmHg 91%
    05:00 0°C° 0 mm 5 mps 733 mmHg 91%
    06:00 0°C° 0 mm 5 mps 733 mmHg 91%
    07:00 0°C° 0 mm 5 mps 733 mmHg 91%
    08:00 0°C° 0 mm 5 mps 733 mmHg 91%
    09:00 0°C° 0 mm 5 mps 734 mmHg 91%
    10:00 0°C° 0 mm 5 mps 734 mmHg 91%
    11:00 0°C° 0 mm 5 mps 735 mmHg 91%
    12:00 0°C° 0 mm 5 mps 735 mmHg 87%
    13:00 -1°C° 0 mm 6 mps 736 mmHg 83%
    14:00 -2°C° 0 mm 6 mps 736 mmHg 79%
    15:00 -2°C° 0 mm 6 mps 737 mmHg 81%
    16:00 -2°C° 0 mm 6 mps 738 mmHg 82%
    17:00 -2°C° 0 mm 5 mps 738 mmHg 84%
    18:00 -4°C° 0 mm 5 mps 739 mmHg 84%
    19:00 -4°C° 0 mm 5 mps 740 mmHg 85%
    20:00 -4°C° 0 mm 4 mps 740 mmHg 86%
    21:00 -4°C° 0 mm 4 mps 741 mmHg 86%
    22:00 -5°C° 0 mm 3 mps 741 mmHg 86%
    23:00 -5°C° 0 mm 3 mps 742 mmHg 86%

    Tomorrow, 19 January, Saturday

    Time Temperature Precipitation Wind Pressure Humidity
    00:00 -5°C° 0 mm 3 mps 743 mmHg 87%
    01:00 -5°C° 0 mm 3 mps 743 mmHg 87%
    02:00 -5°C° 0 mm 3 mps 743 mmHg 87%
    03:00 -5°C° 0 mm 3 mps 744 mmHg 87%
    04:00 -5°C° 0 mm 3 mps 744 mmHg 88%
    05:00 -6°C° 0 mm 3 mps 744 mmHg 88%
    06:00 -6°C° 0 mm 3 mps 744 mmHg 88%
    07:00 -6°C° 0 mm 3 mps 745 mmHg 89%
    08:00 -6°C° 0 mm 3 mps 745 mmHg 90%
    09:00 -5°C° 0 mm 3 mps 745 mmHg 87%
    10:00 -5°C° 0 mm 3 mps 745 mmHg 84%
    11:00 -4°C° 0 mm 3 mps 746 mmHg 81%
    12:00 -4°C° 0 mm 3 mps 746 mmHg 80%
    13:00 -2°C° 0 mm 3 mps 745 mmHg 78%
    14:00 -2°C° 0 mm 3 mps 745 mmHg 77%
    15:00 -2°C° 0 mm 2 mps 745 mmHg 80%
    16:00 -3°C° 0 mm 2 mps 745 mmHg 83%
    17:00 -2°C° 0 mm 1 mps 745 mmHg 86%
    18:00 -2°C° 0 mm 1 mps 745 mmHg 87%
    19:00 -2°C° 0 mm 1 mps 745 mmHg 87%
    20:00 -2°C° 0 mm 1 mps 745 mmHg 88%
    21:00 -3°C° 0 mm 1 mps 745 mmHg 88%
    22:00 -3°C° 0 mm 1 mps 745 mmHg 88%
    23:00 -5°C° 0 mm 2 mps 745 mmHg 89%

    Day after tomorrow, 20 January, Sunday

    Time Temperature Precipitation Wind Pressure Humidity
    00:00 -5°C° 0 mm 2 mps 745 mmHg 88%
    01:00 -5°C° 0 mm 2 mps 745 mmHg 88%
    02:00 -6°C° 0 mm 2 mps 744 mmHg 87%
    03:00 -6°C° 0 mm 2 mps 744 mmHg 87%
    04:00 -6°C° 0 mm 2 mps 743 mmHg 87%
    05:00 -6°C° 0 mm 2 mps 743 mmHg 86%
    06:00 -6°C° 0 mm 2 mps 743 mmHg 88%
    07:00 -6°C° 0 mm 2 mps 743 mmHg 89%
    08:00 -7°C° 0 mm 2 mps 742 mmHg 91%
    09:00 -4°C° 0 mm 1 mps 742 mmHg 90%
    10:00 -4°C° 0 mm 1 mps 742 mmHg 89%
    11:00 -3°C° 0 mm 1 mps 742 mmHg 88%
    12:00 -3°C° 0 mm 1 mps 742 mmHg 85%
    13:00 -2°C° 0 mm 1 mps 742 mmHg 83%
    14:00 -2°C° 0 mm 1 mps 741 mmHg 81%
    15:00 -2°C° 0 mm 1 mps 741 mmHg 83%
    16:00 -2°C° 0 mm 1 mps 741 mmHg 86%
    17:00 -3°C° 0 mm 1 mps 741 mmHg 88%
    18:00 -3°C° 0 mm 1 mps 741 mmHg 88%
    19:00 -3°C° 0 mm 1 mps 742 mmHg 88%
    20:00 -3°C° 0 mm 1 mps 742 mmHg 89%
    21:00 -3°C° 0 mm 1 mps 742 mmHg 88%
    22:00 -3°C° 0 mm 1 mps 742 mmHg 87%
    23:00 -5°C° 0 mm 2 mps 742 mmHg 86%

    21 January, Monday

    Time Temperature Precipitation Wind Pressure Humidity
    00:00 -6°C° 0 mm 2 mps 743 mmHg 87%
    01:00 -6°C° 0 mm 2 mps 743 mmHg 87%
    02:00 -6°C° 0 mm 2 mps 743 mmHg 87%
    03:00 -6°C° 0 mm 2 mps 743 mmHg 88%
    04:00 -7°C° 0 mm 3 mps 743 mmHg 89%
    05:00 -7°C° 0 mm 3 mps 743 mmHg 90%
    06:00 -6°C° 0 mm 2 mps 744 mmHg 92%
    07:00 -6°C° 0 mm 2 mps 744 mmHg 93%
    08:00 -6°C° 0 mm 2 mps 745 mmHg 95%
    09:00 -5°C° 0 mm 2 mps 745 mmHg 93%
    10:00 -5°C° 0 mm 2 mps 746 mmHg 91%
    11:00 -2°C° 0 mm 1 mps 746 mmHg 89%
    12:00 -2°C° 0 mm 1 mps 746 mmHg 84%
    13:00 -1°C° 0 mm 1 mps 746 mmHg 79%
    14:00 -1°C° 0 mm 1 mps 746 mmHg 74%
    15:00 -1°C° 0 mm 1 mps 746 mmHg 77%
    16:00 -3°C° 0 mm 0 mps 746 mmHg 80%
    17:00 -3°C° 0 mm 0 mps 746 mmHg 83%
    18:00 -3°C° 0 mm 1 mps 747 mmHg 84%
    19:00 -3°C° 0 mm 1 mps 747 mmHg 85%
    20:00 -3°C° 0 mm 1 mps 747 mmHg 86%
    21:00 -3°C° 0 mm 1 mps 747 mmHg 87%
    22:00 -5°C° 0 mm 2 mps 747 mmHg 88%
    23:00 -5°C° 0 mm 2 mps 747 mmHg 90%

    22 January, Tuesday

    Time Temperature Precipitation Wind Pressure Humidity
    00:00 -5°C° 0 mm 2 mps 746 mmHg 91%
    01:00 -6°C° 0 mm 2 mps 746 mmHg 92%
    02:00 -6°C° 0 mm 2 mps 746 mmHg 94%
    03:00 -6°C° 0 mm 2 mps 745 mmHg 94%
    04:00 -6°C° 0 mm 2 mps 745 mmHg 94%
    05:00 -6°C° 0 mm 2 mps 745 mmHg 94%
    06:00 -7°C° 0 mm 3 mps 744 mmHg 92%
    07:00 -7°C° 0 mm 3 mps 744 mmHg 90%
    08:00 -7°C° 0 mm 3 mps 744 mmHg 89%
    09:00 -7°C° 0 mm 3 mps 743 mmHg 84%
    10:00 -6°C° 0 mm 3 mps 743 mmHg 80%
    11:00 -7°C° 0 mm 4 mps 743 mmHg 75%
    12:00 -5°C° 0 mm 3 mps 742 mmHg 73%
    13:00 -5°C° 0 mm 3 mps 742 mmHg 71%
    14:00 -4°C° 0 mm 3 mps 741 mmHg 69%
    15:00 -5°C° 0 mm 3 mps 740 mmHg 73%
    16:00 -5°C° 0 mm 3 mps 740 mmHg 77%
    17:00 -6°C° 0 mm 3 mps 739 mmHg 81%
    18:00 -6°C° 0 mm 3 mps 739 mmHg 84%
    19:00 -6°C° 0 mm 3 mps 738 mmHg 86%
    20:00 -6°C° 0 mm 3 mps 738 mmHg 88%
    21:00 -8°C° 0 mm 4 mps 737 mmHg 88%
    22:00 -8°C° 0 mm 4 mps 737 mmHg 88%
    23:00 -8°C° 0 mm 4 mps 736 mmHg 89%

    23 January, Wednesday

    Time Temperature Precipitation Wind Pressure Humidity
    00:00 -8°C° 0 mm 4 mps 736 mmHg 89%
    01:00 -8°C° 0 mm 4 mps 735 mmHg 89%
    02:00 -9°C° 0 mm 4 mps 734 mmHg 90%
    03:00 -9°C° 0 mm 4 mps 734 mmHg 90%
    04:00 -9°C° 0 mm 4 mps 733 mmHg 91%
    05:00 -9°C° 0 mm 4 mps 733 mmHg 91%
    06:00 -10°C° 0 mm 5 mps 732 mmHg 90%
    07:00 -10°C° 0 mm 5 mps 732 mmHg 90%
    08:00 -10°C° 0 mm 5 mps 731 mmHg 89%
    09:00 -10°C° 0 mm 5 mps 731 mmHg 88%
    10:00 -8°C° 0 mm 5 mps 730 mmHg 86%
    11:00 -8°C° 0 mm 5 mps 730 mmHg 84%
    12:00 -6°C° 0 mm 5 mps 729 mmHg 84%
    13:00 -5°C° 0 mm 6 mps 729 mmHg 84%
    14:00 -4°C° 0 mm 6 mps 728 mmHg 83%
    15:00 -4°C° 0 mm 6 mps 727 mmHg 85%
    16:00 -4°C° 0 mm 5 mps 727 mmHg 87%
    17:00 -2°C° 0 mm 5 mps 726 mmHg 90%
    18:00 -2°C° 0 mm 5 mps 726 mmHg 90%
    19:00 -2°C° 0 mm 5 mps 726 mmHg 91%
    20:00 -2°C° 0 mm 5 mps 726 mmHg 91%
    21:00 -3°C° 0 mm 6 mps 725 mmHg 90%
    22:00 -2°C° 0 mm 6 mps 725 mmHg 90%
    23:00 -2°C° 0 mm 6 mps 725 mmHg 89%
    Show more